Wise, VA

3:21 AM EST on December 15, 2019 (GMT -0500)
Lonesome Pine

Weather History for KLNP - November, 2019

Change the Weather History Date:

Saturday, November 16, 2019

  Actual Average Record
Temperature  
Mean Temperature 38 °F -  
Max Temperature 48 °F 51 °F 64 °F (1998)
Min Temperature 28 °F 34 °F 21 °F (1997)
Degree Days  
Heating Degree Days 27    
Moisture  
Dew Point 27 °F    
Average Humidity 72    
Maximum Humidity 86    
Minimum Humidity 46    
Precipitation  
Precipitation 0.00 in - - ()
Sea Level Pressure  
Sea Level Pressure 30.16 in    
Wind  
Wind Speed 6 mph ()    
Max Wind Speed 9 mph    
Max Gust Speed -    
Visibility 10.0 miles    
Events      
Averages and records for this station are not official NWS values.
T = Trace of Precipitation, MM = Missing Value Source: Averaged Metar Reports

Daily Weather History Graph

Daily Weather History Graph

Search for Another Location

Airport or City:

Astronomy

Nov. 16, 2019 Rise Set
Actual Time 7:09 AM EST 5:19 PM EST
Civil Twilight 6:41 AM EST 5:47 PM EST
Nautical Twilight 6:10 AM EST 6:19 PM EST
Astronomical Twilight 5:39 AM EST 6:49 PM EST
Moon 8:54 PM EST (11/16) 10:59 AM EST (11/16)
Length of Visible Light 11h 05m
Length of Day
10h 10m
Waning Gibbous, 82% of the Moon is Illuminated
Nov 16
Waning Gibbous
Nov 19
Last Quarter
Nov 26
New
Dec 4
First Quarter
Dec 12
Full

Hourly Weather History & Observations

Time (EST) Temp. Windchill Dew Point Humidity Pressure Visibility Wind Dir Wind Speed Gust Speed Precip Events Conditions
12:15 AM 33.8 °F 27.7 °F 26.6 °F 75% 30.19 in 10.0 mi North 6.9 mph - N/A   Clear
12:35 AM 33.8 °F 27.7 °F 26.6 °F 75% 30.19 in 10.0 mi NNE 6.9 mph - N/A   Clear
12:55 AM 32.0 °F 26.4 °F 26.6 °F 80% 30.19 in 10.0 mi NNE 5.8 mph - N/A   Clear
1:15 AM 32.0 °F 26.4 °F 26.6 °F 80% 30.18 in 10.0 mi North 5.8 mph - N/A   Clear
1:35 AM 32.0 °F 26.4 °F 26.6 °F 80% 30.18 in 10.0 mi NNE 5.8 mph - N/A   Clear
1:55 AM 32.0 °F 25.6 °F 26.6 °F 80% 30.17 in 10.0 mi North 6.9 mph - N/A   Clear
2:15 AM 32.0 °F 27.5 °F 26.6 °F 80% 30.17 in 10.0 mi North 4.6 mph - N/A   Clear
2:35 AM 32.0 °F 26.4 °F 24.8 °F 75% 30.16 in 10.0 mi North 5.8 mph - N/A   Clear
2:55 AM 32.0 °F 27.5 °F 24.8 °F 75% 30.16 in 10.0 mi North 4.6 mph - N/A   Clear
3:15 AM 32.0 °F 24.8 °F 24.8 °F 75% 30.16 in 10.0 mi North 8.1 mph - N/A   Clear
3:35 AM 32.0 °F 24.8 °F 24.8 °F 75% 30.15 in 10.0 mi North 8.1 mph - N/A   Clear
4:15 AM 32.0 °F 26.4 °F 24.8 °F 75% 30.16 in 10.0 mi North 5.8 mph - N/A   Clear
4:35 AM 32.0 °F 26.4 °F 24.8 °F 75% 30.16 in 10.0 mi North 5.8 mph - N/A   Clear
4:55 AM 32.0 °F 26.4 °F 24.8 °F 75% 30.16 in 10.0 mi North 5.8 mph - N/A   Clear
5:35 AM 30.2 °F 23.4 °F 24.8 °F 80% 30.17 in 10.0 mi NNE 6.9 mph - N/A   Clear
5:55 AM 30.2 °F 22.6 °F 24.8 °F 80% 30.17 in 10.0 mi NNE 8.1 mph - N/A   Clear
6:15 AM 30.2 °F 23.4 °F 24.8 °F 80% 30.17 in 10.0 mi NNE 6.9 mph - N/A   Clear
6:35 AM 28.4 °F 20.4 °F 24.8 °F 86% 30.18 in 10.0 mi NNE 8.1 mph - N/A   Clear
6:55 AM 30.2 °F 22.6 °F 24.8 °F 80% 30.18 in 10.0 mi NNE 8.1 mph - N/A   Clear
7:15 AM 30.2 °F 21.9 °F 24.8 °F 80% 30.19 in 10.0 mi NNE 9.2 mph - N/A   Clear
7:35 AM 28.4 °F 20.4 °F 24.8 °F 86% 30.20 in 10.0 mi NNE 8.1 mph - N/A   Clear
7:55 AM 30.2 °F 23.4 °F 26.6 °F 86% 30.20 in 10.0 mi NNE 6.9 mph - N/A   Clear
8:15 AM 30.2 °F 23.4 °F 26.6 °F 86% 30.21 in 10.0 mi NNE 6.9 mph - N/A   Clear
8:35 AM 32.0 °F 25.6 °F 26.6 °F 80% 30.21 in 10.0 mi NNE 6.9 mph - N/A   Clear
8:55 AM 32.0 °F 25.6 °F 26.6 °F 80% 30.21 in 10.0 mi NNE 6.9 mph - N/A   Clear
9:15 AM 32.0 °F 25.6 °F 26.6 °F 80% 30.21 in 10.0 mi NNE 6.9 mph - N/A   Clear
9:35 AM 33.8 °F 27.0 °F 26.6 °F 75% 30.21 in 10.0 mi NNE 8.1 mph - N/A   Clear
9:55 AM 33.8 °F 27.0 °F 26.6 °F 75% 30.22 in 10.0 mi NNE 8.1 mph - N/A   Clear
10:15 AM 35.6 °F 30.7 °F 28.4 °F 75% 30.21 in 10.0 mi NNE 5.8 mph - N/A   Clear
10:35 AM 35.6 °F 30.7 °F 28.4 °F 75% 30.21 in 10.0 mi North 5.8 mph - N/A   Clear
10:55 AM 37.4 °F 30.8 °F 28.4 °F 70% 30.21 in 10.0 mi NNE 9.2 mph - N/A   Clear
11:15 AM 37.4 °F 31.4 °F 28.4 °F 70% 30.20 in 10.0 mi NNE 8.1 mph - N/A   Clear
11:35 AM 41.0 °F 36.4 °F 28.4 °F 61% 30.19 in 10.0 mi NNE 6.9 mph - N/A   Clear
12:15 PM 42.8 °F 37.5 °F 28.4 °F 57% 30.17 in 10.0 mi NNE 9.2 mph - N/A   Clear
12:35 PM 42.8 °F 37.5 °F 28.4 °F 57% 30.16 in 10.0 mi NNE 9.2 mph - N/A   Clear
12:55 PM 44.6 °F 40.7 °F 28.4 °F 53% 30.15 in 10.0 mi North 6.9 mph - N/A   Clear
1:15 PM 44.6 °F 42.2 °F 28.4 °F 53% 30.14 in 10.0 mi NNE 4.6 mph - N/A   Clear
1:55 PM 46.4 °F 42.9 °F 28.4 °F 50% 30.12 in 10.0 mi NNE 6.9 mph - N/A   Clear
2:35 PM 48.2 °F - 28.4 °F 46% 30.12 in 10.0 mi NNE 6.9 mph - N/A   Clear
3:15 PM 46.4 °F 42.4 °F 26.6 °F 46% 30.12 in 10.0 mi North 8.1 mph - N/A   Clear
3:55 PM 46.4 °F 43.5 °F 28.4 °F 50% 30.12 in 10.0 mi North 5.8 mph - N/A   Clear
4:15 PM 46.4 °F 43.5 °F 28.4 °F 50% 30.12 in 10.0 mi North 5.8 mph - N/A   Clear
4:35 PM 44.6 °F 41.4 °F 28.4 °F 53% 30.12 in 10.0 mi North 5.8 mph - N/A   Clear
4:55 PM 44.6 °F 42.2 °F 28.4 °F 53% 30.12 in 10.0 mi North 4.6 mph - N/A   Clear
5:15 PM 42.8 °F 41.1 °F 28.4 °F 57% 30.12 in 10.0 mi North 3.5 mph - N/A   Clear
5:35 PM 41.0 °F - 28.4 °F 61% 30.13 in 10.0 mi Calm Calm - N/A   Clear
5:55 PM 41.0 °F 39.0 °F 28.4 °F 61% 30.13 in 10.0 mi North 3.5 mph - N/A   Clear
6:15 PM 39.2 °F - 28.4 °F 65% 30.14 in 10.0 mi Calm Calm - N/A   Clear
6:35 PM 39.2 °F 37.0 °F 28.4 °F 65% 30.14 in 10.0 mi North 3.5 mph - N/A   Clear
6:55 PM 37.4 °F 33.8 °F 28.4 °F 70% 30.14 in 10.0 mi North 4.6 mph - N/A   Clear
7:15 PM 37.4 °F 33.8 °F 28.4 °F 70% 30.14 in 10.0 mi North 4.6 mph - N/A   Clear
7:35 PM 35.6 °F 32.8 °F 28.4 °F 75% 30.15 in 10.0 mi North 3.5 mph - N/A   Clear
7:55 PM 35.6 °F 31.7 °F 28.4 °F 75% 30.14 in 10.0 mi North 4.6 mph - N/A   Clear
8:15 PM 33.8 °F 30.8 °F 28.4 °F 81% 30.14 in 10.0 mi North 3.5 mph - N/A   Clear
8:35 PM 33.8 °F 30.8 °F 28.4 °F 81% 30.14 in 10.0 mi NNE 3.5 mph - N/A   Clear
8:55 PM 35.6 °F 31.7 °F 28.4 °F 75% 30.13 in 10.0 mi NE 4.6 mph - N/A   Clear
9:15 PM 33.8 °F - 28.4 °F 81% 30.13 in 10.0 mi Calm Calm - N/A   Clear
9:35 PM 35.6 °F 32.8 °F 28.4 °F 75% 30.12 in 10.0 mi NE 3.5 mph - N/A   Clear
9:55 PM 33.8 °F 30.8 °F 28.4 °F 81% 30.12 in 10.0 mi NE 3.5 mph - N/A   Clear
10:15 PM 33.8 °F 30.8 °F 28.4 °F 81% 30.12 in 10.0 mi NE 3.5 mph - N/A   Clear
10:35 PM 33.8 °F - 28.4 °F 81% 30.12 in 10.0 mi Calm Calm - N/A   Clear
10:55 PM 33.8 °F 30.8 °F 28.4 °F 81% 30.12 in 10.0 mi ENE 3.5 mph - N/A   Clear
11:15 PM 33.8 °F - 28.4 °F 81% 30.11 in 10.0 mi Calm Calm - N/A   Clear
11:35 PM 33.8 °F - 28.4 °F 81% 30.10 in 10.0 mi Calm Calm - N/A   Clear
11:55 PM 32.0 °F - 26.6 °F 80% 30.10 in 10.0 mi Calm Calm - N/A   Clear